| time (UTC) | temp F | wind direction | speed MPH | gust MPH | rain 1hr in | rain 24hr in | rain mn in | humidity % | barometer mb |
| 20260505211500 | 60 | 222 | 4.0 | 4.0 | 0.00 | 0.00 | 0.00 | 72 | 1016.0 |
| 20260505210956 | 60 | 143 | 1.0 | 2.0 | 0.00 | 0.00 | 0.00 | 72 | 1016.1 |
| 20260505210453 | 59 | 161 | 2.0 | 6.0 | 0.00 | 0.00 | 0.00 | 73 | 1016.2 |
| 20260505205950 | 59 | 139 | 2.0 | 4.0 | 0.00 | 0.00 | 0.00 | 73 | 1016.0 |
| 20260505205449 | 59 | 156 | 1.0 | 1.0 | 0.00 | 0.00 | 0.00 | 75 | 1016.3 |
| 20260505204945 | 59 | 143 | 1.0 | 2.0 | 0.00 | 0.00 | 0.00 | 76 | 1016.2 |
| 20260505204443 | 59 | 165 | 1.0 | 2.0 | 0.00 | 0.00 | 0.00 | 74 | 1016.1 |
| 20260505203940 | 58 | 182 | 2.0 | 6.0 | 0.00 | 0.00 | 0.00 | 75 | 1016.2 |
| 20260505203436 | 58 | 161 | 1.0 | 2.0 | 0.00 | 0.00 | 0.00 | 75 | 1016.4 |
| 20260505202933 | 58 | 193 | 1.0 | 2.0 | 0.00 | 0.00 | 0.00 | 76 | 1016.2 |
| 20260505202429 | 59 | 166 | 2.0 | 3.0 | 0.00 | 0.00 | 0.00 | 74 | 1016.3 |
| 20260505201926 | 59 | 148 | 1.0 | 2.0 | 0.00 | 0.00 | 0.00 | 75 | 1016.0 |
| 20260505201423 | 59 | 167 | 1.0 | 2.0 | 0.00 | 0.00 | 0.00 | 75 | 1016.3 |
| 20260505200921 | 59 | 149 | 1.0 | 3.0 | 0.00 | 0.00 | 0.00 | 75 | 1015.9 |
| 20260505200418 | 59 | 153 | 1.0 | 2.0 | 0.00 | 0.00 | 0.00 | 74 | 1016.1 |
| 20260505195913 | 59 | 171 | 1.0 | 2.0 | 0.00 | 0.00 | 0.00 | 76 | 1016.2 |
| 20260505195411 | 58 | 148 | 0.0 | 3.0 | 0.00 | 0.00 | 0.00 | 77 | 1016.3 |
| 20260505194908 | 58 | 191 | 1.0 | 2.0 | 0.00 | 0.00 | 0.00 | 76 | 1016.3 |
| 20260505194406 | 58 | 177 | 0.0 | 2.0 | 0.00 | 0.00 | 0.00 | 75 | 1016.0 |
| 20260505193905 | 58 | 155 | 0.0 | 0.0 | 0.00 | 0.00 | 0.00 | 77 | 1016.1 |
| 20260505193404 | 58 | 147 | 0.0 | 1.0 | 0.00 | 0.00 | 0.00 | 76 | 1016.1 |
| 20260505192901 | 58 | 223 | 1.0 | 4.0 | 0.00 | 0.00 | 0.00 | 75 | 1016.4 |
| 20260505192359 | 58 | 134 | 1.0 | 2.0 | 0.00 | 0.00 | 0.00 | 77 | 1016.2 |
| 20260505191856 | 58 | 154 | 2.0 | 4.0 | 0.00 | 0.00 | 0.00 | 75 | 1016.2 |
| 20260505191355 | 58 | 174 | 1.0 | 2.0 | 0.00 | 0.00 | 0.00 | 76 | 1016.1 |
| 20260505190851 | 58 | 163 | 1.0 | 1.0 | 0.00 | 0.00 | 0.00 | 76 | 1016.1 |
| 20260505190347 | 58 | 146 | 1.0 | 3.0 | 0.00 | 0.00 | 0.00 | 76 | 1016.1 |
| 20260505185842 | 57 | 117 | 0.0 | 2.0 | 0.00 | 0.00 | 0.00 | 77 | 1016.0 |
| 20260505185339 | 57 | 120 | 2.0 | 3.0 | 0.00 | 0.00 | 0.00 | 77 | 1016.0 |
| 20260505184835 | 58 | 191 | 2.0 | 4.0 | 0.00 | 0.00 | 0.00 | 76 | 1016.0 |
| 20260505184332 | 58 | 157 | 1.0 | 1.0 | 0.00 | 0.00 | 0.00 | 76 | 1016.0 |
| 20260505183829 | 57 | 110 | 1.0 | 3.0 | 0.00 | 0.00 | 0.00 | 78 | 1016.1 |
| 20260505183326 | 57 | 121 | 1.0 | 2.0 | 0.00 | 0.00 | 0.00 | 78 | 1016.0 |
| 20260505182823 | 58 | 163 | 4.0 | 6.0 | 0.00 | 0.00 | 0.00 | 76 | 1016.1 |
| 20260505182320 | 58 | 133 | 0.0 | 1.0 | 0.00 | 0.00 | 0.00 | 77 | 1016.2 |
| 20260505181816 | 57 | 142 | 0.0 | 3.0 | 0.00 | 0.00 | 0.00 | 77 | 1016.1 |
| 20260505181314 | 57 | 147 | 1.0 | 2.0 | 0.00 | 0.00 | 0.00 | 77 | 1016.0 |
| 20260505180810 | 57 | 189 | 2.0 | 3.0 | 0.00 | 0.00 | 0.00 | 77 | 1015.8 |
| 20260505180307 | 57 | 128 | 0.0 | 2.0 | 0.00 | 0.00 | 0.00 | 77 | 1015.9 |
| 20260505175803 | 57 | 131 | 0.0 | 1.0 | 0.00 | 0.00 | 0.00 | 78 | 1016.0 |
| 20260505175300 | 57 | 148 | 1.0 | 2.0 | 0.00 | 0.00 | 0.00 | 78 | 1016.0 |
| 20260505174756 | 57 | 131 | 1.0 | 2.0 | 0.00 | 0.00 | 0.00 | 78 | 1016.2 |
| 20260505174253 | 57 | 156 | 0.0 | 2.0 | 0.00 | 0.00 | 0.00 | 78 | 1016.1 |
| 20260505173749 | 57 | 134 | 1.0 | 1.0 | 0.00 | 0.00 | 0.00 | 78 | 1016.0 |
| 20260505173246 | 57 | 129 | 0.0 | 1.0 | 0.00 | 0.00 | 0.00 | 79 | 1016.0 |
| 20260505172743 | 57 | 149 | 0.0 | 1.0 | 0.00 | 0.00 | 0.00 | 79 | 1015.9 |
| 20260505172240 | 57 | 138 | 0.0 | 1.0 | 0.00 | 0.00 | 0.00 | 79 | 1015.9 |
| 20260505171740 | 56 | 137 | 1.0 | 2.0 | 0.00 | 0.00 | 0.00 | 79 | 1015.9 |
| 20260505171237 | 56 | 171 | 1.0 | 1.0 | 0.00 | 0.00 | 0.00 | 80 | 1015.8 |
| 20260505170734 | 56 | 162 | 0.0 | 1.0 | 0.00 | 0.00 | 0.00 | 80 | 1015.9 |
| 20260505170231 | 56 | 170 | 2.0 | 2.0 | 0.00 | 0.00 | 0.00 | 79 | 1015.9 |
| 20260505165726 | 56 | 146 | 0.0 | 2.0 | 0.00 | 0.00 | 0.00 | 81 | 1015.7 |
| 20260505165222 | 55 | 151 | 0.0 | 1.0 | 0.00 | 0.00 | 0.00 | 81 | 1015.8 |
| 20260505164718 | 55 | 148 | 1.0 | 4.0 | 0.00 | 0.00 | 0.00 | 82 | 1015.8 |
| 20260505164215 | 55 | 172 | 2.0 | 6.0 | 0.00 | 0.00 | 0.00 | 81 | 1015.9 |
| 20260505163713 | 55 | 151 | 0.0 | 1.0 | 0.00 | 0.00 | 0.00 | 82 | 1015.8 |
| 20260505163212 | 55 | 139 | 0.0 | 2.0 | 0.00 | 0.00 | 0.00 | 82 | 1015.7 |
| 20260505162709 | 55 | 200 | 2.0 | 3.0 | 0.00 | 0.00 | 0.00 | 81 | 1015.6 |
| 20260505162206 | 55 | 146 | 1.0 | 4.0 | 0.00 | 0.00 | 0.00 | 81 | 1015.6 |
| 20260505161702 | 55 | 127 | 1.0 | 2.0 | 0.00 | 0.00 | 0.00 | 81 | 1015.8 |
| 20260505161200 | 55 | 163 | 1.0 | 1.0 | 0.00 | 0.00 | 0.00 | 81 | 1015.8 |
| 20260505160658 | 55 | 129 | 2.0 | 3.0 | 0.00 | 0.00 | 0.00 | 81 | 1015.5 |
| 20260505160155 | 55 | 122 | 0.0 | 1.0 | 0.00 | 0.00 | 0.00 | 81 | 1015.6 |
| 20260505153134 | 55 | 201 | 4.0 | 4.0 | 0.00 | 0.00 | 0.00 | 81 | 1015.5 |
| 20260505152631 | 55 | 117 | 1.0 | 2.0 | 0.00 | 0.00 | 0.00 | 82 | 1015.4 |
| 20260505152127 | 55 | 194 | 1.0 | 2.0 | 0.00 | 0.00 | 0.00 | 82 | 1015.5 |
| 20260505151622 | 55 | 199 | 2.0 | 4.0 | 0.00 | 0.00 | 0.00 | 82 | 1015.2 |
| 20260505151120 | 55 | 142 | 0.0 | 1.0 | 0.00 | 0.00 | 0.00 | 83 | 1015.3 |
| 20260505150616 | 54 | 211 | 2.0 | 3.0 | 0.00 | 0.00 | 0.00 | 82 | 1015.2 |
| 20260505150113 | 54 | 189 | 1.0 | 2.0 | 0.00 | 0.00 | 0.00 | 83 | 1015.3 |
| 20260505140541 | 54 | 212 | 1.0 | 2.0 | 0.00 | 0.00 | 0.00 | 84 | 1014.8 |
| 20260505124955 | 54 | 143 | 0.0 | 2.0 | 0.00 | 0.00 | 0.00 | 83 | 1013.9 |
| 20260505124451 | 54 | 150 | 0.0 | 1.0 | 0.00 | 0.00 | 0.00 | 84 | 1014.0 |
| 20260505123947 | 54 | 182 | 2.0 | 2.0 | 0.00 | 0.00 | 0.00 | 84 | 1013.8 |
| 20260505123444 | 54 | 157 | 0.0 | 2.0 | 0.00 | 0.00 | 0.00 | 84 | 1013.6 |
| 20260505122940 | 54 | 149 | 0.0 | 1.0 | 0.00 | 0.00 | 0.00 | 84 | 1013.9 |
| 20260505122438 | 54 | 138 | 0.0 | 7.0 | 0.00 | 0.00 | 0.00 | 84 | 1013.9 |
| 20260505121934 | 54 | 146 | 1.0 | 4.0 | 0.00 | 0.00 | 0.00 | 84 | 1013.9 |
| 20260505121432 | 54 | 170 | 1.0 | 2.0 | 0.00 | 0.00 | 0.00 | 84 | 1013.8 |
| 20260505120927 | 54 | 145 | 0.0 | 2.0 | 0.00 | 0.00 | 0.00 | 85 | 1013.8 |
| 20260505120424 | 54 | 134 | 1.0 | 2.0 | 0.00 | 0.00 | 0.00 | 85 | 1013.6 |
| 20260505115923 | 54 | 198 | 2.0 | 2.0 | 0.00 | 0.00 | 0.00 | 85 | 1013.7 |
| 20260505115420 | 54 | 140 | 0.0 | 3.0 | 0.00 | 0.00 | 0.00 | 85 | 1013.7 |
| 20260505114918 | 54 | 150 | 0.0 | 1.0 | 0.00 | 0.00 | 0.00 | 85 | 1013.5 |
| 20260505114414 | 54 | 156 | 1.0 | 8.0 | 0.00 | 0.00 | 0.00 | 85 | 1013.4 |
| 20260505113910 | 54 | 169 | 1.0 | 1.0 | 0.00 | 0.00 | 0.00 | 85 | 1013.4 |
| 20260505113407 | 54 | 205 | 3.0 | 4.0 | 0.00 | 0.00 | 0.00 | 85 | 1013.5 |
| 20260505112903 | 54 | 141 | 0.0 | 1.0 | 0.00 | 0.00 | 0.00 | 85 | 1013.3 |
| 20260505112400 | 54 | 148 | 1.0 | 1.0 | 0.00 | 0.00 | 0.00 | 85 | 1013.4 |
| 20260505111856 | 54 | 147 | 0.0 | 2.0 | 0.00 | 0.00 | 0.00 | 85 | 1013.7 |
| 20260505111351 | 54 | 153 | 1.0 | 4.0 | 0.00 | 0.00 | 0.00 | 85 | 1013.5 |
| 20260505110847 | 54 | 205 | 2.0 | 3.0 | 0.00 | 0.00 | 0.00 | 85 | 1013.5 |
| 20260505110345 | 54 | 139 | 3.0 | 4.0 | 0.00 | 0.00 | 0.00 | 85 | 1013.3 |
| 20260505101815 | 54 | 191 | 1.0 | 2.0 | 0.00 | 0.00 | 0.00 | 87 | 1013.1 |
| 20260505101310 | 53 | 157 | 2.0 | 6.0 | 0.00 | 0.00 | 0.00 | 86 | 1013.0 |
| 20260505100806 | 54 | 161 | 3.0 | 4.0 | 0.00 | 0.00 | 0.00 | 86 | 1013.2 |
| 20260505100303 | 54 | 199 | 4.0 | 7.0 | 0.00 | 0.00 | 0.00 | 87 | 1013.2 |
| 20260505095759 | 54 | 221 | 3.0 | 4.0 | 0.00 | 0.00 | 0.00 | 87 | 1013.0 |
| 20260505095257 | 53 | 173 | 1.0 | 2.0 | 0.00 | 0.00 | 0.00 | 87 | 1012.8 |
| 20260505094752 | 53 | 157 | 1.0 | 3.0 | 0.00 | 0.00 | 0.00 | 87 | 1013.0 |
| 20260505094249 | 53 | 144 | 1.0 | 8.0 | 0.00 | 0.00 | 0.00 | 87 | 1013.1 |
| 20260505093745 | 53 | 236 | 2.0 | 3.0 | 0.00 | 0.00 | 0.00 | 87 | 1013.1 |
| 20260505093243 | 53 | 153 | 0.0 | 3.0 | 0.00 | 0.00 | 0.00 | 87 | 1012.8 |
| 20260505092739 | 53 | 189 | 2.0 | 6.0 | 0.00 | 0.00 | 0.00 | 87 | 1012.7 |
| 20260505092238 | 53 | 131 | 0.0 | 2.0 | 0.00 | 0.00 | 0.00 | 87 | 1012.8 |
| 20260505091735 | 53 | 182 | 3.0 | 4.0 | 0.00 | 0.00 | 0.00 | 88 | 1012.5 |
| 20260505091233 | 53 | 154 | 0.0 | 3.0 | 0.00 | 0.00 | 0.00 | 88 | 1012.5 |
| 20260505090730 | 53 | 130 | 1.0 | 4.0 | 0.00 | 0.00 | 0.00 | 87 | 1012.6 |
| 20260505090229 | 53 | 133 | 1.0 | 2.0 | 0.00 | 0.00 | 0.00 | 87 | 1012.7 |
| 20260505085725 | 53 | 171 | 1.0 | 3.0 | 0.00 | 0.00 | 0.00 | 87 | 1012.5 |
| 20260505085224 | 53 | 139 | 1.0 | 4.0 | 0.00 | 0.00 | 0.00 | 87 | 1012.4 |
| 20260505084721 | 53 | 150 | 2.0 | 6.0 | 0.00 | 0.00 | 0.00 | 87 | 1012.4 |
| 20260505084220 | 53 | 140 | 2.0 | 6.0 | 0.00 | 0.00 | 0.00 | 87 | 1012.3 |
| 20260505083716 | 53 | 153 | 1.0 | 4.0 | 0.00 | 0.00 | 0.00 | 87 | 1012.4 |
| 20260505083213 | 53 | 186 | 1.0 | 6.0 | 0.00 | 0.00 | 0.00 | 87 | 1012.4 |
| 20260505082709 | 53 | 245 | 2.0 | 6.0 | 0.00 | 0.00 | 0.00 | 87 | 1012.4 |
| 20260505082206 | 53 | 186 | 1.0 | 6.0 | 0.00 | 0.00 | 0.00 | 86 | 1012.3 |
| 20260505081702 | 54 | 150 | 2.0 | 4.0 | 0.00 | 0.00 | 0.00 | 86 | 1012.5 |
| 20260505081159 | 54 | 138 | 2.0 | 2.0 | 0.00 | 0.00 | 0.00 | 86 | 1012.3 |
| 20260505080656 | 54 | 154 | 1.0 | 1.0 | 0.00 | 0.00 | 0.00 | 86 | 1012.3 |
| 20260505080152 | 54 | 148 | 0.0 | 1.0 | 0.00 | 0.00 | 0.00 | 86 | 1012.5 |
| 20260505075648 | 54 | 153 | 0.0 | 2.0 | 0.00 | 0.00 | 0.00 | 86 | 1012.2 |
| 20260505075145 | 54 | 180 | 1.0 | 3.0 | 0.00 | 0.00 | 0.00 | 86 | 1012.3 |
| 20260505074642 | 54 | 145 | 1.0 | 2.0 | 0.00 | 0.00 | 0.00 | 85 | 1012.1 |
| 20260505074139 | 54 | 150 | 2.0 | 4.0 | 0.00 | 0.00 | 0.00 | 85 | 1012.2 |
| 20260505073637 | 54 | 149 | 0.0 | 3.0 | 0.00 | 0.00 | 0.00 | 85 | 1012.0 |
| 20260505073135 | 54 | 140 | 0.0 | 4.0 | 0.00 | 0.00 | 0.00 | 85 | 1011.9 |
| 20260505072630 | 54 | 144 | 1.0 | 4.0 | 0.00 | 0.00 | 0.00 | 85 | 1011.9 |
| 20260505072127 | 54 | 126 | 0.0 | 3.0 | 0.00 | 0.00 | 0.00 | 85 | 1011.9 |
| 20260505071623 | 54 | 145 | 1.0 | 6.0 | 0.00 | 0.00 | 0.00 | 85 | 1011.7 |
| 20260505071121 | 54 | 117 | 2.0 | 4.0 | 0.00 | 0.00 | 0.00 | 84 | 1011.7 |
| 20260505070618 | 55 | 217 | 3.0 | 4.0 | 0.00 | 0.00 | 0.00 | 84 | 1011.6 |
| 20260505070114 | 55 | 134 | 1.0 | 2.0 | 0.00 | 0.00 | 0.00 | 84 | 1011.9 |
| 20260505065610 | 55 | 181 | 2.0 | 3.0 | 0.00 | 0.00 | 0.00 | 84 | 1011.8 |
| 20260505065106 | 55 | 162 | 1.0 | 7.0 | 0.00 | 0.00 | 0.00 | 83 | 1011.5 |
| 20260505064603 | 55 | 110 | 1.0 | 2.0 | 0.00 | 0.00 | 0.00 | 83 | 1011.7 |
| 20260505064102 | 55 | 198 | 2.0 | 2.0 | 0.00 | 0.00 | 0.00 | 83 | 1011.6 |
| 20260505063559 | 55 | 148 | 1.0 | 3.0 | 0.00 | 0.00 | 0.00 | 83 | 1011.5 |
| 20260505063055 | 55 | 146 | 3.0 | 4.0 | 0.00 | 0.00 | 0.00 | 82 | 1011.4 |
| 20260505062551 | 55 | 172 | 1.0 | 6.0 | 0.00 | 0.00 | 0.00 | 82 | 1011.3 |
| 20260505062049 | 56 | 138 | 0.0 | 6.0 | 0.00 | 0.00 | 0.00 | 82 | 1011.4 |
| 20260505061546 | 56 | 159 | 2.0 | 4.0 | 0.00 | 0.00 | 0.00 | 81 | 1011.4 |
| 20260505061044 | 56 | 226 | 3.0 | 7.0 | 0.00 | 0.00 | 0.00 | 81 | 1011.4 |
| 20260505060541 | 56 | 170 | 1.0 | 4.0 | 0.00 | 0.00 | 0.00 | 81 | 1011.1 |
| 20260505060037 | 56 | 197 | 2.0 | 4.0 | 0.00 | 0.00 | 0.00 | 81 | 1011.3 |
| 20260505055533 | 56 | 139 | 1.0 | 4.0 | 0.00 | 0.00 | 0.00 | 80 | 1011.2 |
| 20260505055030 | 56 | 163 | 1.0 | 6.0 | 0.00 | 0.00 | 0.00 | 80 | 1011.3 |
| 20260505054527 | 56 | 199 | 2.0 | 6.0 | 0.00 | 0.00 | 0.00 | 80 | 1011.0 |
| 20260505054025 | 56 | 143 | 0.0 | 2.0 | 0.00 | 0.00 | 0.00 | 79 | 1011.0 |
| 20260505053522 | 57 | 123 | 2.0 | 3.0 | 0.00 | 0.00 | 0.00 | 79 | 1010.9 |
| 20260505053019 | 57 | 140 | 4.0 | 7.0 | 0.00 | 0.00 | 0.00 | 78 | 1011.0 |
| 20260505052516 | 57 | 171 | 1.0 | 3.0 | 0.00 | 0.00 | 0.00 | 78 | 1011.0 |
| 20260505052013 | 57 | 147 | 1.0 | 1.0 | 0.00 | 0.00 | 0.00 | 77 | 1010.8 |
| 20260505051510 | 58 | 195 | 2.0 | 6.0 | 0.00 | 0.00 | 0.00 | 77 | 1010.9 |
| 20260505051008 | 58 | 138 | 1.0 | 2.0 | 0.00 | 0.00 | 0.00 | 76 | 1010.9 |
| 20260505050506 | 58 | 175 | 1.0 | 3.0 | 0.00 | 0.00 | 0.00 | 75 | 1010.7 |
| 20260505041433 | 61 | 156 | 2.0 | 3.0 | 0.00 | 0.00 | 0.00 | 69 | 1010.1 |
| 20260505040931 | 62 | 218 | 2.0 | 4.0 | 0.00 | 0.00 | 0.00 | 68 | 1010.0 |
| 20260505040428 | 62 | 135 | 1.0 | 3.0 | 0.00 | 0.00 | 0.00 | 68 | 1010.0 |
| 20260505035925 | 63 | 145 | 1.0 | 2.0 | 0.00 | 0.00 | 0.00 | 67 | 1009.9 |
| 20260505035421 | 63 | 152 | 1.0 | 3.0 | 0.00 | 0.00 | 0.00 | 66 | 1009.9 |
| 20260505034918 | 63 | 148 | 2.0 | 3.0 | 0.00 | 0.00 | 0.00 | 65 | 1009.8 |
| 20260505034414 | 64 | 141 | 0.0 | 3.0 | 0.00 | 0.00 | 0.00 | 65 | 1009.8 |
| 20260505033912 | 64 | 141 | 1.0 | 2.0 | 0.00 | 0.00 | 0.00 | 64 | 1009.7 |
| 20260505033408 | 65 | 121 | 2.0 | 4.0 | 0.00 | 0.00 | 0.00 | 63 | 1009.6 |
| 20260505032907 | 65 | 146 | 1.0 | 3.0 | 0.00 | 0.00 | 0.00 | 62 | 1009.5 |
| 20260505032403 | 66 | 193 | 3.0 | 4.0 | 0.00 | 0.00 | 0.00 | 61 | 1009.6 |
| 20260505031900 | 66 | 140 | 1.0 | 2.0 | 0.00 | 0.00 | 0.00 | 60 | 1009.4 |
| 20260505031357 | 67 | 192 | 1.0 | 6.0 | 0.00 | 0.00 | 0.00 | 60 | 1009.4 |
| 20260505030854 | 68 | 122 | 1.0 | 3.0 | 0.00 | 0.00 | 0.00 | 58 | 1009.5 |
| 20260505030349 | 68 | 126 | 2.0 | 4.0 | 0.00 | 0.00 | 0.00 | 57 | 1009.3 |
| 20260505025845 | 69 | 144 | 0.0 | 1.0 | 0.00 | 0.00 | 0.00 | 56 | 1009.3 |
| 20260505025343 | 69 | 147 | 1.0 | 3.0 | 0.00 | 0.00 | 0.00 | 55 | 1009.1 |
| 20260505024842 | 70 | 141 | 1.0 | 6.0 | 0.00 | 0.00 | 0.00 | 54 | 1009.0 |
| 20260505024339 | 70 | 148 | 0.0 | 1.0 | 0.00 | 0.00 | 0.00 | 54 | 1009.1 |
| 20260505023836 | 71 | 155 | 2.0 | 6.0 | 0.00 | 0.00 | 0.00 | 53 | 1009.1 |
| 20260505023332 | 71 | 163 | 1.0 | 2.0 | 0.00 | 0.00 | 0.00 | 52 | 1009.2 |
| 20260505022830 | 72 | 190 | 4.0 | 6.0 | 0.00 | 0.00 | 0.00 | 49 | 1009.3 |
| 20260505022327 | 72 | 152 | 1.0 | 2.0 | 0.00 | 0.00 | 0.00 | 49 | 1009.1 |
| 20260505021824 | 72 | 181 | 2.0 | 3.0 | 0.00 | 0.00 | 0.00 | 47 | 1009.1 |
| 20260505021321 | 73 | 157 | 2.0 | 4.0 | 0.00 | 0.00 | 0.00 | 47 | 1009.1 |
| 20260505020816 | 73 | 169 | 1.0 | 4.0 | 0.00 | 0.00 | 0.00 | 47 | 1009.4 |
| 20260505020312 | 74 | 147 | 2.0 | 6.0 | 0.00 | 0.00 | 0.00 | 46 | 1009.0 |
| 20260505015809 | 74 | 188 | 5.0 | 6.0 | 0.00 | 0.00 | 0.00 | 46 | 1009.0 |
| 20260505015306 | 74 | 185 | 2.0 | 3.0 | 0.00 | 0.00 | 0.00 | 46 | 1009.1 |
| 20260505014804 | 74 | 170 | 4.0 | 6.0 | 0.00 | 0.00 | 0.00 | 46 | 1009.0 |
| 20260505014301 | 75 | 173 | 2.0 | 4.0 | 0.00 | 0.00 | 0.00 | 47 | 1009.1 |
| 20260505013757 | 76 | 184 | 3.0 | 7.0 | 0.00 | 0.00 | 0.00 | 45 | 1009.0 |
| 20260505013254 | 76 | 152 | 1.0 | 3.0 | 0.00 | 0.00 | 0.00 | 45 | 1009.1 |
| 20260505012753 | 76 | 166 | 1.0 | 2.0 | 0.00 | 0.00 | 0.00 | 45 | 1009.1 |
| 20260505012250 | 76 | 183 | 1.0 | 2.0 | 0.00 | 0.00 | 0.00 | 46 | 1008.9 |
| 20260505011745 | 76 | 166 | 0.0 | 2.0 | 0.00 | 0.00 | 0.00 | 46 | 1008.9 |
| 20260505011242 | 76 | 129 | 2.0 | 2.0 | 0.00 | 0.00 | 0.00 | 45 | 1009.1 |
| 20260505010738 | 76 | 223 | 1.0 | 2.0 | 0.00 | 0.00 | 0.00 | 45 | 1009.1 |
| 20260505010234 | 76 | 170 | 4.0 | 4.0 | 0.00 | 0.00 | 0.00 | 44 | 1009.1 |
| 20260505005731 | 77 | 126 | 2.0 | 3.0 | 0.00 | 0.00 | 0.00 | 43 | 1009.2 |
| 20260505005228 | 77 | 165 | 3.0 | 4.0 | 0.00 | 0.00 | 0.00 | 44 | 1009.2 |
| 20260505004725 | 78 | 173 | 2.0 | 2.0 | 0.00 | 0.00 | 0.00 | 43 | 1009.1 |
| 20260505004222 | 78 | 185 | 2.0 | 2.0 | 0.00 | 0.00 | 0.00 | 42 | 1009.0 |
| 20260505003719 | 77 | 139 | 1.0 | 6.0 | 0.00 | 0.00 | 0.00 | 43 | 1009.1 |
| 20260505003217 | 78 | 196 | 2.0 | 4.0 | 0.00 | 0.00 | 0.00 | 42 | 1009.1 |
| 20260505002713 | 78 | 133 | 1.0 | 3.0 | 0.00 | 0.00 | 0.00 | 42 | 1009.2 |
| 20260505002210 | 79 | 110 | 6.0 | 7.0 | 0.00 | 0.00 | 0.00 | 40 | 1009.1 |
| 20260505001708 | 79 | 146 | 2.0 | 2.0 | 0.00 | 0.00 | 0.00 | 39 | 1009.1 |
| 20260505001205 | 78 | 168 | 1.0 | 3.0 | 0.00 | 0.00 | 0.00 | 39 | 1009.1 |
| 20260505000702 | 78 | 57 | 2.0 | 2.0 | 0.00 | 0.00 | 0.00 | 39 | 1009.3 |
| 20260505000200 | 80 | 173 | 2.0 | 3.0 | 0.00 | 0.00 | 0.00 | 36 | 1009.5 |
| 20260504235656 | 80 | 146 | 1.0 | 3.0 | 0.00 | 0.00 | 0.00 | 37 | 1009.2 |
| 20260504235152 | 81 | 140 | 0.0 | 2.0 | 0.00 | 0.00 | 0.00 | 36 | 1009.3 |
| 20260504234650 | 80 | 238 | 2.0 | 2.0 | 0.00 | 0.00 | 0.00 | 37 | 1009.3 |
| 20260504234147 | 80 | 168 | 0.0 | 2.0 | 0.00 | 0.00 | 0.00 | 37 | 1009.2 |
| 20260504233643 | 80 | 134 | 2.0 | 3.0 | 0.00 | 0.00 | 0.00 | 36 | 1009.1 |
| 20260504233139 | 81 | 126 | 2.0 | 3.0 | 0.00 | 0.00 | 0.00 | 36 | 1009.3 |
| 20260504232637 | 81 | 289 | 0.0 | 1.0 | 0.00 | 0.00 | 0.00 | 36 | 1009.5 |
| 20260504232133 | 81 | 141 | 0.0 | 2.0 | 0.00 | 0.00 | 0.00 | 36 | 1009.3 |
| 20260504231630 | 80 | 252 | 2.0 | 2.0 | 0.00 | 0.00 | 0.00 | 35 | 1009.2 |
| 20260504231126 | 80 | 141 | 1.0 | 3.0 | 0.00 | 0.00 | 0.00 | 35 | 1009.4 |
| 20260504230622 | 80 | 150 | 2.0 | 3.0 | 0.00 | 0.00 | 0.00 | 36 | 1009.4 |
| 20260504230122 | 80 | 145 | 2.0 | 3.0 | 0.00 | 0.00 | 0.00 | 36 | 1009.2 |
| 20260504225619 | 81 | 140 | 1.0 | 3.0 | 0.00 | 0.00 | 0.00 | 35 | 1009.6 |
| 20260504225115 | 80 | 175 | 2.0 | 2.0 | 0.00 | 0.00 | 0.00 | 36 | 1009.7 |
| 20260504224612 | 80 | 337 | 3.0 | 3.0 | 0.00 | 0.00 | 0.00 | 36 | 1009.7 |
| 20260504224109 | 80 | 132 | 1.0 | 3.0 | 0.00 | 0.00 | 0.00 | 38 | 1009.8 |
| 20260504223606 | 81 | 176 | 1.0 | 2.0 | 0.00 | 0.00 | 0.00 | 36 | 1010.1 |
| 20260504223102 | 79 | 149 | 2.0 | 3.0 | 0.00 | 0.00 | 0.00 | 38 | 1009.9 |
| 20260504222559 | 80 | 217 | 1.0 | 3.0 | 0.00 | 0.00 | 0.00 | 37 | 1009.9 |
| 20260504222056 | 78 | 165 | 3.0 | 4.0 | 0.00 | 0.00 | 0.00 | 38 | 1010.0 |
| 20260504221553 | 78 | 166 | 1.0 | 4.0 | 0.00 | 0.00 | 0.00 | 39 | 1009.9 |
| 20260504221050 | 78 | 172 | 1.0 | 2.0 | 0.00 | 0.00 | 0.00 | 39 | 1009.9 |
| 20260504220546 | 79 | 160 | 4.0 | 6.0 | 0.00 | 0.00 | 0.00 | 37 | 1010.1 |
| 20260504220044 | 78 | 162 | 1.0 | 2.0 | 0.00 | 0.00 | 0.00 | 38 | 1010.0 |
| 20260504215540 | 78 | 246 | 2.0 | 4.0 | 0.00 | 0.00 | 0.00 | 39 | 1010.1 |
| 20260504215037 | 78 | 174 | 2.0 | 3.0 | 0.00 | 0.00 | 0.00 | 40 | 1010.2 |
| 20260504214533 | 78 | 126 | 2.0 | 3.0 | 0.00 | 0.00 | 0.00 | 39 | 1010.2 |
| 20260504214030 | 78 | 145 | 2.0 | 2.0 | 0.00 | 0.00 | 0.00 | 40 | 1010.2 |
| 20260504213526 | 79 | 161 | 2.0 | 3.0 | 0.00 | 0.00 | 0.00 | 39 | 1010.3 |
| 20260504213024 | 79 | 126 | 1.0 | 2.0 | 0.00 | 0.00 | 0.00 | 37 | 1010.4 |
| 20260504212519 | 79 | 251 | 2.0 | 4.0 | 0.00 | 0.00 | 0.00 | 40 | 1010.6 |
| 20260504212017 | 79 | 143 | 1.0 | 3.0 | 0.00 | 0.00 | 0.00 | 39 | 1010.1 |